[Date Prev][Date Next][Thread Prev][Thread Next][Date Index][Thread Index]

[jamsat-news:794] jas2info #80



=========================   最新情報   ==============================

        Last updated :Mon.23-Mar.-98 21:00 (JST) #80

====================================================================   
     衛星情報 FOシリーズの軌道要素、テレメトリ、QSOの状況等をま
   とめてみました.

  1)FO−29(ふじ3号)は3月23日 (月)の17:58(JST)の
     パスではJDディジタルモード 1200bpsのPSKで運用されて
     いました.連続的なテレメトリ信号の収集などがJARL技術研究所の
     管制局JJ1ZUT局により熱心に行われていました.
         
  ■ 軌道要素1:「jamsatーkeps:674」より
                 SB KEPS @ AMSAT  $ORB98079.N
                 2Line Orbital Elements 98079.AMSAT

  HR AMSAT ORBITAL ELEMENTS FOR AMATEUR SATELLITES IN NASA FORMAT
  FROM WA5QGD FORT WORTH,TX March 20, 1998
  SEND SUBSCRIBE/UNSUBSCRIBE TO listserv@amsat.org ONLY
  BID: ORB98079.N

  DECODE 2-LINE ELSETS WITH THE FOLLOWING KEY:
  1 AAAAAU 00  0  0 BBBBB.BBBBBBBB  .CCCCCCCC  00000-0  00000-0 0  DDDZ
  2 AAAAA EEE.EEEE FFF.FFFF GGGGGGG HHH.HHHH III.IIII JJ.JJJJJJJJKKKKKZ
  KEY: A-CATALOGNUM B-EPOCHTIME C-DECAY D-ELSETNUM E-INCLINATION F-RAAN
  G-ECCENTRICITY H-ARGPERIGEE I-MNANOM J-MNMOTION K-ORBITNUM Z-CHECKSUM
  TO ALL RADIO AMATEURS BT
 
 FO-29
  1 24278U 96046B   98077.56615031  .00000036  00000-0  72945-4 0  1482
  2 24278  98.5167  85.9839 0351064 194.8321 164.2308 13.52639354 78213
 
 ■ 軌道要素2:「jamsatーkeps:675」より
                SB KEPS @ AMSAT  $ORB98079.O
                Orbital Elements  98079.OSCAR

  HR AMSAT ORBITAL ELEMENTS FOR OSCAR SATELLITES
  FROM WA5QGD FORT WORTH,TX March 20, 1998
  SEND SUBSCRIBE/UNSUBSCRIBE TO listserv@amsat.org ONLY
  BID: ORB98079.O
  TO ALL RADIO AMATEURS BT

  Satellite: FO-29
  Catalog number: 24278
  Epoch time:      98077.56615031
  Element set:     148
  Inclination:       98.5167 deg
  RA of node:        85.9839 deg
  Eccentricity:    0.0351064
  Arg of perigee:   194.8321 deg
  Mean anomaly:     164.2308 deg
  Mean motion:   13.52639354 rev/day
  Decay rate:        3.6e-07 rev/day^2
  Epoch rev:            7821
  Checksum:              333
 -----------------------------------------------------------
  1 )FO−29(ふじ3号)の 3月23日(月)はJDディジタルモードの
     1200bpsのPSKで運用され、ビーコン波にのったテレメトリの
     一部は次のようになっていました.

   AS7886P    23Mar98
   JST  17:57 - 18:21
   Freq. 435.921 - .901MHz



 cmd:8J1JCS>BEACON [03/23/98  18:01:40]:
 JAS-2    '97/03/23 08:59:25
 9C 03 63 08 00 97 00 00 00 00
 00 00 35 A3 F4 76 60 93 90 B0
 AA 52 A8 01 F1 88 89 8B 90 8E

 8J1JCS>BEACON [03/23/98  18:01:41]:95 02 00 09 20 00 35 40 00 00
 30 A9 D8 4B 27 B8 BC 8C 85 89
 00 00 00 87 8B B3 F7 00 00 00

 User not connect.

 8J1JCS>BEACON [03/23/98  18:01:43]:
 Total    3 File(s)


  No.  Date  UTC    To    From   Size   Subject
 0003 03/14 09:01 ALL    GM4ULS      36 Greetings
 0002 03/12 


 8J1JCS>BEACON [03/23/98  18:01:44]:15:51 ALL    ON1DLL     287 hello to all!
 0001 03/11 06:01 ALL    JJ1ZUT       6 test

*途中省略

 8J1JCS>BEACON [03/23/98  18:11:22]:9C 03 63 08 00 9C 00 00 00 00
 00 00 35 A5 11 78 60 94 91 B0
 AB 52 A8 01 DA 88 89 8B 90 8E

 8J1JCS>BEACON [03/23/98  18:11:23]:95 02 00 09 20 00 35 40 00 00
 B7 AD 45 2D 23 02 02 8A 87 89
 00 00 00 87 88 B3 F7 00 00 00

8J1JCS>BEACON [03/23/98  18:11:24]:9C 03 63 08 00 9C 00 00 00 00
 00 00 35 A5 11 77 60 93 91 B0
 AB 52 A8 01 EC 88 89 8A 90 8E

 8J1JCS>BEACON [03/23/98  18:11:26]:95 02 00 09 20 00 35 40 00 00
 B7 AD 45 2D 23 02 02 8A 87 89
 00 00 00 87 88 B3 F7 00 00 00

 8J1JCS>BEACON [03/23/98  18:11:27]:9C 03 63 08 00 9C 00 00 00 00
 00 00 35 A5 11 77 60 93 91 B0
 AB 52 A8 01 EC 88 89 8A 90 8E

 8J1JCS>BEACON [03/23/98  18:11:31]:9C 03 63 08 00 9D 00 00 00 00
 00 00 35 A5 11 61 60 94 91 AF
 AA 52 A8 01 C9 88 88 8A 90 8E

 8J1JCS>BEACON [03/23/98  18:11:32]:95 02 00 09 20 00 35 40 00 00
 B7 AD 45 2D 23 02 02 8A 87 88
 00 00 00 87 88 B3 F7 00 00 00

 8J1JCS>BEACON [03/23/98  18:11:33]:9C 03 63 08 00 9D 00 00 00 00
 00 00 35 A5 11 61 60 93 91 B0
 AA 52 A8 01 BF 88 89 8A 90 8E

 8J1JCS>BEACON [03/23/98  18:11:34]:95 02 00 09 20 00 35 40 00 00
 B7 AD 45 2D 23 02 02 8A 87 88
 00 00 00 87 88 B3 F7 00 00 00

 8J1JCS>BEACON [03/23/98  18:11:35]:9C 03 63 08 00 9D 00 00 00 00
 00 00 35 A5 11 61 60 93 91 B0
 AA 52 A8 01 BF 88 89 8A 90 8E

 8J1JCS>BEACON [03/23/98  18:12:35]:9C 03 63 08 00 9E 00 00 00 00
 00 00 35 A5 2F 57 60 93 91 AF
 AB 52 A8 01 DA 88 89 8A 90 8E

 8J1JCS>BEACON [03/23/98  18:12:36]:95 02 04 09 20 00 35 40 00 00
 B7 AD 34 46 23 28 2B 8A 86 87
 00 00 00 87 89 B3 F7 00 00 00

  2 ) JDディジタルテレメトリのアナログ量換算値例
	FO−29(ふじ3号)	
  上記テレメトリの最後の2ブロックを換算
					
 テレメトリ         内   容            換算値  単位
 F1ー12	磁気センサーX軸=	25490.2	nT
 F1ー13	磁気センサーZ軸=	34313.7	nT
 F0ー15	太陽電池発生電流=	  852.9	mA
 F0ー16	B充放電電流	=	  118.4	mA
 F0ー17	B端子電圧	=	   15.8	V
 F0ー18	B中間端子電圧	=	    7.0	V
 F0ー19	バス電圧	=	   17.2	V
 F0ー20	+5安定化電圧	=	    5.1	V
 F0ー21	ー5V安定化電圧	=	   -4.9	V
 F0ー22	+10V安定化電圧=	   10.1	V
 F0ー23	JTA出力電力	=	  -91.6	mW
 F0ー24	JTD出力電力	=	 1535.5	mW
 F0ー25	Bセル温度	=	   29.1	℃
 F0ー26	構体温度ー1	=	   28.7	℃
 F0ー27	構体温度ー2	=	   28.3	℃
 F0ー28	構体温度ー3	=	   26.0	℃
 F0ー29	構体温度ー4	=	   26.7	℃
 F1ー18	太陽電池パネル温度ー1=   20.2	℃
 F1ー19	太陽電池パネル温度ー2=   22.5	℃
 F1ー24	太陽電池パネル温度ー3=   27.0	℃
 F1ー23	JTD  Tr温度 =	   29.5	℃

   *計算処理は OFFICE 97 を使用.

 ==========================================================================  
  3)FO−20(ふじ 2号)のCWテレメトリは3月23日(月)のパスでも
      切れ目の無い連続音になっいましたが,アナログ QSOは通常どうり行われております.
 -------------------------------------------------------------------------- 
 
 ■ 軌道要素1 :出典は「ふじ3号」に同じ.
 
  FO-20
  1 20480U 90013C   98075.75867386 -.00000018  00000-0  23347-4 0   372
  2 20480  99.0767 351.4769 0541638 120.4950 245.0782 12.83241508379660
   
  ■ 軌道要素2 :出典は「ふじ3号」に同じ. 
  
  Satellite: FO-20
  Catalog number: 20480
  Epoch time:      98075.75867386
  Element set:      37
  Inclination:       99.0767 deg
  RA of node:       351.4769 deg
  Eccentricity:    0.0541638
  Arg of perigee:   120.4950 deg
  Mean anomaly:     245.0782 deg
  Mean motion:   12.83241508 rev/day
  Decay rate:       -1.8e-07 rev/day^2
  Epoch rev:           37966
  Checksum:              340
   =========================   JARL運用情報   =========================

  *JARL のホームページに運用の予定変更が記載されていましたのでご紹介します.

        ■ ふじ3号/FO−29 ■  
   QTC !
   運用について
  2月22日プログラムのリロードが完了しましたが再度メモリーエラーが発生している事を
 確認しました。再度コンピューターのリセット,プログラムのロード作業を行っていますので,
 今しばらくお待ち下さい。
 リロード作業中はアナログ系中継器は使用できますのでご活用下さい。
  今後の運用に付きましては3月16日以降にお知らせいたします。

       ■ ふじ2号/FO−20 ■      
            「ふじ2号」 現況                                                                                               
   JAS-1b/FO-20(ふじ2号)の不具合発生について
    JAS-1b(ふじ2号)のCWテレメトリ信号に,1997年10月12日12時
 (JST)の日本上空通過時,3桁の数字が繰り返されるはずが3個の長音の
  繰り返しとなっているという異常が発見されました。この不具合は次の通過時
  からは回復していましたが13日15時20分の通過時に再び観測されました。
  衛星のアナログ系中継モード動作は異常が無く,正常時のテレメトリ内容からは
  衛星の動作に異常は認められません。従って,直ちに衛星のミッションに影響す
  ることは無いと予想されますので,当面はアナログ系中継モードを継続します。
  衛星は既に打ち上げてから7年8ヶ月を経ておりますので,今後は監視を強化す
  る予定です。アマチュア各位のレポートをお待ちします.   
  
  以上  http://www.jarl.or.jp/Japanese/3_Fuji/jr1nvu.htm  より.
                                           
   =============   JAS-2 (ふじ3号)と現在までの情報   ===========  
  A.電話によるふじ3号の運用情報
      社団法人日本アマチュア連盟によるサービス
           TEL .   03− 3942 − 1000
  B.アマチュア無線FAXサービス
      JARLによるふじ3号の軌道情報(オービットカレンダー)
         FAX No.  03− 3233 −0055
  C.WWWブラウザで情報を簡単に見れる人のためにJAS−2
     ふじ3号の衛星としての運用されるまでの名前)の概要、打ち上げ
     までの状況、運用中における状況を説明したホームページを紹介し
     ておきます.
    1)社団法人日本アマチュア無線連盟(JARL)のホームページ

          http://www.jarl.or.jp/Japanese/3_Fuji/jr1nvu.htm
 
    2)宇宙開発事業団(NASDA)ホームページ 
          http://www.nasda.go.jp/
         打上げ衛星 :地球観測プラットフォーム技術衛星(ADEOS) 
                       アマチュア衛星3号(JAS-2)
          http://yyy.tksc.nasda.go.jp/Home/Press/Press-j/jas-2_j.html        

  D.JAMSATによる軌道情報の活用
        JAMSATのホームページまたはjamsat−kepsの軌道要素より
      衛星の軌道情報を得る.
     JAMSATホームページ
               URL    http://www.jamsat.or.jp
       上記ホームページでは各地で行われるアマチュア通信衛星に関する
      ミューティングのお知らせや世界のアマチュア衛星に関する情報が
      満載されています.

=======   FO−29(ふじ 3号)のテレメトリ分析  ==========

    JE9PEL/1局の脇田さんがテレメトリ解析を「jamsat:bb3195」にfo-29
   telemetryとして投稿されていましたので転載させて頂きました.

 -------------------------------------------
  衛星FO-29 テレメトリ解析 (1998年 3月17日)
 -------------------------------------------
                          by JE9PEL/1 脇田

 ここしばらく途絶えていたFO-29(ふじ3号,JAS-2)のデジタルモードのプロ
 グラムのリロードが官制局の努力により完了し、ようやくJDモードが復活し
 ました。3月16日(月)に久しぶりに当局においてもPSKテレメトリ(1200bps)
 を受信してみました。その時のLOGの一部を以下に抜粋します。

 [Mar.17,1998, 15:45〜15:54 JST]
 ==========================================================
    8J1JCS>BEACON [03/16/98  15:45:21] <UI C>:

    JAS-2    '97/03/16 06:45:25
    9C 03 63 08 01 5B 00 01 00 00
    00 00 30 F7 00 7A 5F 92 90 B0
    AB 52 A8 01 83 88 8B 8C 8D 8D

    8J1JCS>BEACON [03/16/98  15:45:22] <UI C>:
    D5 02 00 0A 20 00 C8 40 00 00
    A1 A5 D3 58 35 AD B2 8B 85 88
    00 00 00 83 8B B3 F7 00 00 00

    User not connect.
    Total    3 File(s)
     No.  Date  UTC    To    From   Size   Subject
    0003 03/14 09:01 ALL    GM4ULS      36 Greetings
    0002 03/12 15:51 ALL    ON1DLL     287 hello to all!
    0001 03/11 06:01 ALL    JJ1ZUT       6 test

    FO-29/JAS-2 Mailbox ver 1.01
    You can use Mailbox for 10 minutes.
    commands [B/F/H/K/M/Q/R/U/W/Y]
    Use H command for Help
    JAS2>

    8J1JCS>BEACON [03/16/98  15:49:21] <UI C>:
    JAS-2    '97/03/16 06:49:25
    9C 03 63 08 01 5B 00 01 00 00
    00 00 30 F7 78 7E 60 93 90 B0
    AB 52 A8 01 DA 88 8B 8B 8D 8D

    8J1JCS>JJ1ZUT [03/16/98  15:49:21] <RR R F R1>
    8J1JCS>BEACON [03/16/98  15:49:23] <UI C>:
    D5 02 00 0A 20 00 C8 40 00 00
    2E A3 EC 4E 02 08 0C 8A 89 8A
    00 00 00 83 89 B3 F7 00 00 00

    8J1JCS>BEACON [03/16/98  15:53:24] <UI C>:
    User not connect.

    8J1JCS>BEACON [03/16/98  15:54:34] <UI C>:
    9C 03 63 08 00 5C 00 00 00 00
    00 00 30 F8 13 5B 60 92 90 B0
    AA 52 A9 01 C4 88 8B 8C 8D 8D

--
syuzo TAKAYAMA
takayama@bm-1.ktokai-u.ac.jp